QPF
0.01 0.05 0.10 0.13 0.12 0.08 0.03 0.02 0.01 0.00 0.00 0.00 0.01 0.01 0.01 0.02 0.03 0.05 0.11 0.12 0.10 0.10 0.09 0.08 0.05 0.05 0.04 0.04 0.03 0.03 0.02 0.02 0.02 0.02 0.04 0.05 0.04 0.03 0.03 0.04 0.04 0.05 0.06 0.08 0.09 0.11 0.13 0.14 0.13
0.04 0.09 0.12 0.16 0.11 0.06 0.03 0.02 0.01 0.01 0.00 0.00 0.00 0.01 0.01 0.01 0.02 0.05 0.11 0.14 0.10 0.06 0.04 0.05 0.05 0.06 0.05 0.06 0.05 0.03 0.02 0.02 0.02 0.02 0.03 0.03 0.03 0.03 0.03 0.03 0.04 0.06 0.08 0.11 0.15 0.14 0.14 0.14 0.10
0.06 0.09 0.11 0.16 0.08 0.05 0.03 0.02 0.01 0.00 0.00 0.00 0.00 0.00 0.01 0.02 0.02 0.07 0.12 0.06 0.05 0.04 0.04 0.05 0.06 0.09 0.07 0.06 0.04 0.02 0.02 0.02 0.02 0.02 0.02 0.03 0.03 0.04 0.04 0.04 0.04 0.07 0.11 0.15 0.16 0.14 0.12 0.14 0.11
0.08 0.12 0.11 0.10 0.07 0.03 0.01 0.01 0.01 0.00 0.00 0.00 0.00 0.01 0.02 0.04 0.04 0.09 0.08 0.03 0.03 0.04 0.03 0.06 0.12 0.10 0.06 0.05 0.02 0.02 0.02 0.03 0.02 0.03 0.03 0.03 0.03 0.03 0.04 0.05 0.05 0.09 0.16 0.15 0.15 0.16 0.12 0.10 0.08
0.08 0.09 0.10 0.08 0.06 0.03 0.01 0.00 0.00 0.00 0.00 0.00 0.00 0.01 0.04 0.06 0.07 0.08 0.04 0.04 0.04 0.03 0.02 0.03 0.06 0.06 0.05 0.03 0.02 0.02 0.03 0.04 0.04 0.04 0.04 0.04 0.04 0.04 0.04 0.06 0.07 0.08 0.10 0.09 0.10 0.15 0.13 0.12 0.09
0.07 0.06 0.09 0.09 0.05 0.03 0.02 0.01 0.01 0.00 0.00 0.00 0.00 0.01 0.06 0.06 0.07 0.06 0.03 0.04 0.04 0.03 0.02 0.04 0.05 0.05 0.04 0.03 0.02 0.03 0.06 0.06 0.06 0.05 0.06 0.06 0.04 0.05 0.05 0.05 0.07 0.08 0.06 0.06 0.06 0.06 0.06 0.06 0.07
0.10 0.06 0.06 0.04 0.03 0.02 0.02 0.01 0.01 0.01 0.00 0.00 0.01 0.02 0.06 0.07 0.05 0.05 0.04 0.05 0.05 0.04 0.05 0.08 0.06 0.05 0.05 0.05 0.04 0.04 0.06 0.08 0.08 0.07 0.06 0.06 0.06 0.07 0.08 0.07 0.06 0.08 0.07 0.06 0.06 0.06 0.06 0.04 0.04
0.05 0.06 0.06 0.03 0.02 0.02 0.01 0.00 0.01 0.01 0.00 0.00 0.01 0.01 0.03 0.05 0.05 0.05 0.06 0.07 0.07 0.07 0.09 0.10 0.10 0.09 0.08 0.07 0.07 0.08 0.09 0.09 0.08 0.07 0.08 0.09 0.09 0.10 0.11 0.09 0.08 0.09 0.07 0.07 0.07 0.07 0.07 0.06 0.05
0.03 0.05 0.09 0.04 0.02 0.02 0.01 0.00 0.00 0.00 0.00 0.00 0.01 0.02 0.02 0.03 0.03 0.05 0.08 0.08 0.07 0.07 0.09 0.11 0.12 0.13 0.12 0.12 0.12 0.12 0.12 0.11 0.11 0.10 0.11 0.12 0.11 0.11 0.15 0.13 0.11 0.12 0.11 0.10 0.09 0.07 0.07 0.08 0.07
0.01 0.03 0.05 0.02 0.02 0.01 0.01 0.00 0.00 0.00 0.01 0.01 0.02 0.03 0.03 0.03 0.03 0.03 0.03 0.05 0.05 0.05 0.05 0.07 0.10 0.12 0.16 0.18 0.16 0.13 0.10 0.11 0.10 0.10 0.11 0.10 0.09 0.11 0.14 0.19 0.20 0.18 0.17 0.13 0.11 0.08 0.06 0.06 0.05
0.02 0.02 0.02 0.01 0.01 0.01 0.01 0.00 0.00 0.01 0.02 0.02 0.01 0.02 0.02 0.02 0.03 0.02 0.02 0.03 0.05 0.05 0.06 0.07 0.07 0.10 0.14 0.13 0.13 0.12 0.10 0.10 0.09 0.08 0.07 0.07 0.07 0.10 0.14 0.23 0.27 0.25 0.23 0.19 0.16 0.11 0.08 0.07 0.06
0.01 0.00 0.00 0.01 0.00 0.00 0.01 0.01 0.00 0.01 0.02 0.02 0.01 0.02 0.03 0.03 0.03 0.02 0.02 0.03 0.05 0.06 0.07 0.08 0.07 0.09 0.08 0.07 0.08 0.08 0.09 0.09 0.08 0.07 0.06 0.07 0.10 0.11 0.19 0.25 0.23 0.19 0.20 0.19 0.16 0.11 0.11 0.10 0.08
0.00 0.00 0.00 0.00 0.00 0.00 0.00 0.01 0.01 0.02 0.00 0.00 0.01 0.01 0.02 0.02 0.02 0.02 0.02 0.02 0.03 0.04 0.06 0.07 0.06 0.05 0.04 0.05 0.06 0.07 0.10 0.09 0.07 0.05 0.05 0.07 0.11 0.13 0.17 0.20 0.14 0.11 0.13 0.13 0.10 0.09 0.09 0.08 0.06
0.00 0.00 0.00 0.00 0.00 0.00 0.01 0.01 0.01 0.02 0.00 0.00 0.01 0.02 0.01 0.00 0.01 0.02 0.02 0.01 0.02 0.04 0.04 0.04 0.04 0.05 0.04 0.03 0.06 0.09 0.09 0.08 0.07 0.08 0.05 0.04 0.05 0.08 0.12 0.15 0.15 0.13 0.13 0.12 0.10 0.09 0.06 0.04 0.04
0.00 0.01 0.01 0.00 0.00 0.00 0.01 0.01 0.02 0.02 0.01 0.00 0.00 0.00 0.00 0.00 0.00 0.00 0.01 0.01 0.01 0.02 0.02 0.02 0.03 0.03 0.04 0.05 0.09 0.13 0.10 0.09 0.09 0.08 0.04 0.03 0.03 0.04 0.08 0.13 0.16 0.16 0.12 0.11 0.10 0.08 0.05 0.04 0.03
0.00 0.01 0.01 0.00 0.00 0.00 0.01 0.01 0.01 0.02 0.01 0.01 0.01 0.01 0.00 0.00 0.00 0.01 0.00 0.01 0.01 0.02 0.01 0.01 0.01 0.01 0.02 0.05 0.10 0.15 0.14 0.11 0.10 0.07 0.03 0.03 0.03 0.04 0.05 0.09 0.14 0.16 0.15 0.15 0.12 0.08 0.07 0.05 0.05
0.01 0.04 0.01 0.00 0.00 0.00 0.01 0.01 0.01 0.01 0.02 0.03 0.02 0.01 0.00 0.00 0.00 0.00 0.00 0.00 0.00 0.00 0.01 0.01 0.01 0.01 0.01 0.03 0.07 0.09 0.09 0.11 0.09 0.06 0.04 0.04 0.03 0.03 0.03 0.05 0.09 0.13 0.13 0.13 0.13 0.11 0.09 0.07 0.06
0.01 0.02 0.01 0.01 0.00 0.00 0.00 0.01 0.01 0.02 0.03 0.01 0.01 0.01 0.00 0.00 0.00 0.01 0.01 0.00 0.00 0.00 0.00 0.00 0.01 0.01 0.01 0.02 0.04 0.05 0.06 0.08 0.07 0.06 0.05 0.04 0.04 0.03 0.04 0.05 0.05 0.06 0.07 0.08 0.10 0.10 0.09 0.07 0.07
0.00 0.01 0.04 0.01 0.00 0.01 0.00 0.00 0.01 0.01 0.01 0.01 0.01 0.02 0.00 0.00 0.00 0.01 0.01 0.01 0.00 0.00 0.00 0.00 0.01 0.01 0.01 0.01 0.02 0.04 0.06 0.07 0.07 0.07 0.07 0.05 0.04 0.04 0.04 0.05 0.05 0.05 0.04 0.04 0.05 0.08 0.09 0.08 0.07
0.01 0.01 0.01 0.00 0.00 0.01 0.00 0.00 0.00 0.00 0.00 0.00 0.00 0.00 0.01 0.01 0.01 0.01 0.01 0.01 0.01 0.01 0.01 0.00 0.00 0.01 0.01 0.02 0.02 0.04 0.05 0.06 0.05 0.05 0.05 0.05 0.06 0.05 0.05 0.05 0.06 0.06 0.05 0.05 0.05 0.07 0.08 0.09 0.09
0.00 0.00 0.00 0.00 0.00 0.01 0.01 0.01 0.01 0.01 0.00 0.00 0.00 0.01 0.01 0.02 0.01 0.01 0.01 0.01 0.01 0.01 0.01 0.00 0.00 0.00 0.00 0.01 0.01 0.02 0.03 0.04 0.04 0.04 0.05 0.06 0.07 0.06 0.05 0.04 0.06 0.07 0.07 0.05 0.05 0.06 0.05 0.06 0.06
0.00 0.01 0.01 0.01 0.01 0.01 0.01 0.02 0.01 0.01 0.00 0.00 0.01 0.02 0.06 0.06 0.02 0.02 0.01 0.01 0.02 0.02 0.01 0.01 0.01 0.01 0.01 0.01 0.01 0.01 0.02 0.03 0.03 0.03 0.04 0.06 0.06 0.05 0.04 0.04 0.04 0.07 0.06 0.04 0.04 0.03 0.03 0.03 0.04
0.00 0.01 0.01 0.01 0.02 0.03 0.02 0.03 0.03 0.01 0.01 0.01 0.01 0.02 0.03 0.03 0.02 0.02 0.02 0.03 0.02 0.01 0.01 0.01 0.01 0.01 0.01 0.01 0.02 0.02 0.02 0.03 0.03 0.03 0.03 0.04 0.04 0.04 0.04 0.06 0.06 0.05 0.04 0.03 0.03 0.03 0.02 0.03 0.03
0.00 0.01 0.01 0.01 0.02 0.04 0.05 0.04 0.04 0.02 0.01 0.01 0.01 0.01 0.01 0.01 0.01 0.01 0.01 0.01 0.01 0.01 0.01 0.01 0.01 0.01 0.01 0.01 0.01 0.02 0.03 0.03 0.03 0.03 0.03 0.04 0.05 0.07 0.09 0.08 0.07 0.05 0.03 0.03 0.03 0.03 0.02 0.03 0.03
0.00 0.01 0.02 0.02 0.03 0.06 0.05 0.04 0.02 0.01 0.02 0.02 0.01 0.02 0.02 0.01 0.02 0.01 0.01 0.01 0.01 0.01 0.00 0.00 0.01 0.01 0.01 0.01 0.01 0.01 0.02 0.03 0.03 0.05 0.04 0.04 0.06 0.09 0.05 0.04 0.05 0.05 0.04 0.05 0.05 0.04 0.03 0.03 0.03
0.00 0.01 0.02 0.02 0.03 0.05 0.07 0.06 0.03 0.02 0.02 0.02 0.02 0.02 0.01 0.02 0.02 0.01 0.00 0.00 0.00 0.00 0.00 0.00 0.00 0.00 0.00 0.00 0.01 0.01 0.02 0.03 0.03 0.05 0.03 0.03 0.04 0.05 0.04 0.05 0.04 0.04 0.04 0.05 0.05 0.04 0.03 0.03 0.03
0.00 0.00 0.01 0.02 0.02 0.05 0.07 0.06 0.05 0.02 0.02 0.02 0.02 0.02 0.01 0.01 0.01 0.01 0.00 0.00 0.00 0.00 0.00 0.00 0.00 0.00 0.00 0.01 0.01 0.01 0.01 0.02 0.02 0.02 0.02 0.02 0.02 0.03 0.03 0.03 0.03 0.03 0.03 0.03 0.03 0.02 0.02 0.03 0.03
0.00 0.00 0.01 0.01 0.02 0.02 0.04 0.05 0.05 0.04 0.02 0.01 0.01 0.01 0.01 0.01 0.01 0.00 0.00 0.00 0.00 0.00 0.00 0.00 0.00 0.00 0.00 0.00 0.01 0.01 0.01 0.02 0.02 0.02 0.02 0.02 0.02 0.02 0.03 0.03 0.04 0.03 0.02 0.02 0.02 0.01 0.01 0.01 0.01
0.01 0.01 0.00 0.01 0.01 0.01 0.03 0.03 0.02 0.02 0.02 0.02 0.02 0.02 0.02 0.02 0.01 0.00 0.00 0.00 0.00 0.00 0.00 0.00 0.00 0.00 0.00 0.00 0.01 0.01 0.01 0.01 0.02 0.02 0.01 0.01 0.01 0.01 0.03 0.03 0.03 0.03 0.02 0.01 0.01 0.01 0.01 0.01 0.01
0.01 0.00 0.00 0.00 0.00 0.01 0.01 0.02 0.02 0.02 0.02 0.02 0.04 0.04 0.03 0.02 0.01 0.00 0.00 0.00 0.00 0.00 0.00 0.00 0.00 0.00 0.00 0.00 0.00 0.00 0.01 0.01 0.01 0.01 0.01 0.00 0.00 0.01 0.01 0.02 0.02 0.02 0.02 0.02 0.01 0.01 0.01 0.01 0.02
MSLP
1005.32 1006.33 1007.37 1008.28 1008.93 1009.24 1009.22 1008.92 1008.47 1008.01 1007.67 1007.51 1007.55 1007.70 1007.85 1007.86 1007.59 1006.95 1005.95 1004.63 1003.11 1001.54 1000.08 998.85 997.94 997.40 997.21 997.35 997.77 998.44 999.31 1000.37 1001.57 1002.88 1004.25 1005.61 1006.91 1008.08 1009.09 1009.92 1010.58 1011.12 1011.58 1012.01 1012.45 1012.89 1013.35 1013.81 1014.24
1005.60 1006.73 1007.81 1008.67 1009.19 1009.32 1009.10 1008.61 1008.01 1007.47 1007.11 1006.99 1007.09 1007.31 1007.52 1007.55 1007.24 1006.54 1005.44 1004.03 1002.45 1000.87 999.45 998.33 997.59 997.23 997.24 997.56 998.13 998.90 999.82 1000.89 1002.07 1003.34 1004.66 1005.99 1007.25 1008.40 1009.39 1010.21 1010.87 1011.40 1011.86 1012.28 1012.69 1013.12 1013.57 1014.01 1014.43
1006.01 1007.20 1008.26 1009.04 1009.41 1009.36 1008.95 1008.30 1007.59 1006.99 1006.62 1006.54 1006.71 1006.99 1007.24 1007.26 1006.91 1006.13 1004.95 1003.47 1001.86 1000.30 998.97 997.99 997.43 997.30 997.52 998.04 998.76 999.63 1000.60 1001.66 1002.79 1003.98 1005.21 1006.45 1007.63 1008.73 1009.69 1010.49 1011.16 1011.70 1012.17 1012.59 1013.01 1013.43 1013.86 1014.29 1014.69
1006.47 1007.68 1008.68 1009.34 1009.57 1009.37 1008.82 1008.06 1007.29 1006.68 1006.34 1006.31 1006.53 1006.86 1007.11 1007.11 1006.72 1005.87 1004.62 1003.09 1001.47 999.96 998.72 997.89 997.53 997.60 998.03 998.72 999.59 1000.54 1001.54 1002.58 1003.64 1004.73 1005.85 1006.98 1008.07 1009.10 1010.02 1010.81 1011.48 1012.05 1012.54 1012.98 1013.41 1013.84 1014.25 1014.66 1015.04
1006.90 1008.07 1008.99 1009.53 1009.64 1009.34 1008.71 1007.93 1007.16 1006.59 1006.32 1006.36 1006.62 1006.97 1007.22 1007.19 1006.74 1005.83 1004.53 1002.99 1001.38 999.93 998.80 998.10 997.90 998.14 998.74 999.57 1000.54 1001.56 1002.57 1003.57 1004.56 1005.55 1006.56 1007.57 1008.57 1009.52 1010.40 1011.18 1011.86 1012.45 1012.97 1013.45 1013.89 1014.32 1014.73 1015.11 1015.47
1007.19 1008.27 1009.09 1009.53 1009.57 1009.22 1008.61 1007.87 1007.20 1006.73 1006.55 1006.66 1006.98 1007.34 1007.57 1007.50 1007.00 1006.06 1004.75 1003.22 1001.66 1000.28 999.24 998.66 998.57 998.93 999.62 1000.54 1001.56 1002.60 1003.61 1004.57 1005.49 1006.40 1007.31 1008.23 1009.14 1010.03 1010.87 1011.63 1012.31 1012.92 1013.46 1013.95 1014.41 1014.83 1015.23 1015.59 1015.92
1007.25 1008.22 1008.92 1009.29 1009.29 1008.98 1008.46 1007.86 1007.33 1007.01 1006.96 1007.16 1007.51 1007.88 1008.09 1007.99 1007.48 1006.54 1005.27 1003.79 1002.31 1001.02 1000.07 999.57 999.55 999.94 1000.67 1001.59 1002.61 1003.64 1004.62 1005.54 1006.42 1007.27 1008.11 1008.96 1009.81 1010.63 1011.43 1012.16 1012.83 1013.43 1013.97 1014.46 1014.91 1015.32 1015.70 1016.04 1016.34
1007.05 1007.88 1008.48 1008.79 1008.82 1008.60 1008.22 1007.81 1007.48 1007.34 1007.43 1007.71 1008.11 1008.48 1008.67 1008.57 1008.08 1007.20 1006.01 1004.65 1003.29 1002.11 1001.25 1000.80 1000.80 1001.18 1001.86 1002.73 1003.69 1004.67 1005.61 1006.49 1007.33 1008.14 1008.95 1009.75 1010.55 1011.33 1012.07 1012.76 1013.39 1013.95 1014.46 1014.93 1015.35 1015.74 1016.09 1016.40 1016.68
1006.60 1007.30 1007.80 1008.09 1008.17 1008.08 1007.89 1007.69 1007.59 1007.63 1007.85 1008.22 1008.65 1009.02 1009.22 1009.14 1008.72 1007.95 1006.91 1005.72 1004.53 1003.49 1002.73 1002.32 1002.29 1002.61 1003.19 1003.96 1004.82 1005.71 1006.58 1007.42 1008.24 1009.03 1009.82 1010.60 1011.37 1012.10 1012.79 1013.41 1013.98 1014.48 1014.93 1015.34 1015.72 1016.06 1016.38 1016.67 1016.93
1006.03 1006.59 1007.01 1007.29 1007.44 1007.49 1007.50 1007.52 1007.62 1007.84 1008.18 1008.61 1009.06 1009.45 1009.67 1009.65 1009.33 1008.72 1007.89 1006.92 1005.93 1005.06 1004.41 1004.03 1003.97 1004.19 1004.65 1005.27 1005.99 1006.77 1007.56 1008.36 1009.14 1009.93 1010.71 1011.48 1012.21 1012.90 1013.53 1014.09 1014.57 1014.99 1015.36 1015.69 1016.01 1016.31 1016.60 1016.86 1017.11
1005.47 1005.92 1006.28 1006.55 1006.76 1006.94 1007.13 1007.34 1007.62 1007.97 1008.40 1008.87 1009.34 1009.73 1009.99 1010.05 1009.87 1009.46 1008.87 1008.15 1007.41 1006.73 1006.20 1005.87 1005.77 1005.89 1006.20 1006.66 1007.23 1007.87 1008.57 1009.30 1010.05 1010.82 1011.59 1012.34 1013.05 1013.69 1014.26 1014.74 1015.13 1015.47 1015.75 1016.01 1016.26 1016.51 1016.77 1017.02 1017.26
1005.10 1005.45 1005.74 1006.00 1006.27 1006.55 1006.87 1007.23 1007.63 1008.08 1008.56 1009.05 1009.52 1009.92 1010.21 1010.36 1010.34 1010.15 1009.81 1009.36 1008.87 1008.39 1007.99 1007.71 1007.58 1007.61 1007.78 1008.09 1008.50 1009.01 1009.60 1010.25 1010.95 1011.69 1012.43 1013.15 1013.82 1014.42 1014.92 1015.33 1015.65 1015.90 1016.11 1016.31 1016.50 1016.72 1016.95 1017.19 1017.43
1005.02 1005.28 1005.51 1005.76 1006.05 1006.40 1006.81 1007.26 1007.74 1008.24 1008.73 1009.21 1009.66 1010.06 1010.39 1010.63 1010.76 1010.77 1010.67 1010.47 1010.22 1009.93 1009.67 1009.45 1009.31 1009.27 1009.33 1009.51 1009.79 1010.17 1010.64 1011.20 1011.83 1012.50 1013.18 1013.85 1014.48 1015.02 1015.48 1015.83 1016.09 1016.29 1016.45 1016.59 1016.76 1016.94 1017.17 1017.41 1017.66
1005.26 1005.45 1005.62 1005.84 1006.14 1006.53 1006.98 1007.48 1007.99 1008.50 1008.98 1009.43 1009.84 1010.23 1010.59 1010.90 1011.15 1011.33 1011.43 1011.45 1011.39 1011.27 1011.12 1010.97 1010.85 1010.77 1010.77 1010.85 1011.03 1011.30 1011.66 1012.12 1012.65 1013.23 1013.83 1014.43 1014.99 1015.48 1015.88 1016.19 1016.43 1016.60 1016.74 1016.87 1017.03 1017.21 1017.43 1017.68 1017.94
1005.74 1005.86 1005.98 1006.17 1006.47 1006.87 1007.35 1007.86 1008.38 1008.86 1009.31 1009.71 1010.09 1010.46 1010.82 1011.18 1011.52 1011.82 1012.07 1012.24 1012.33 1012.34 1012.29 1012.21 1012.12 1012.04 1012.02 1012.05 1012.17 1012.36 1012.64 1012.99 1013.41 1013.88 1014.37 1014.87 1015.34 1015.77 1016.13 1016.42 1016.65 1016.83 1016.98 1017.13 1017.30 1017.49 1017.73 1017.99 1018.26
1006.30 1006.36 1006.45 1006.63 1006.93 1007.35 1007.83 1008.35 1008.85 1009.30 1009.70 1010.06 1010.39 1010.73 1011.09 1011.47 1011.86 1012.24 1012.57 1012.83 1013.01 1013.11 1013.13 1013.11 1013.07 1013.03 1013.03 1013.07 1013.17 1013.32 1013.53 1013.79 1014.10 1014.44 1014.81 1015.19 1015.57 1015.93 1016.25 1016.53 1016.77 1016.97 1017.16 1017.34 1017.54 1017.77 1018.02 1018.29 1018.57
1006.77 1006.79 1006.87 1007.06 1007.39 1007.83 1008.33 1008.84 1009.32 1009.73 1010.09 1010.40 1010.69 1011.01 1011.35 1011.74 1012.15 1012.55 1012.92 1013.22 1013.44 1013.58 1013.65 1013.68 1013.70 1013.72 1013.78 1013.87 1013.99 1014.15 1014.32 1014.51 1014.72 1014.94 1015.17 1015.43 1015.70 1015.98 1016.26 1016.54 1016.80 1017.05 1017.28 1017.51 1017.75 1018.00 1018.27 1018.55 1018.83
1006.99 1007.01 1007.12 1007.36 1007.75 1008.23 1008.76 1009.27 1009.73 1010.10 1010.40 1010.66 1010.92 1011.20 1011.54 1011.92 1012.34 1012.75 1013.12 1013.42 1013.65 1013.80 1013.89 1013.96 1014.03 1014.13 1014.27 1014.44 1014.63 1014.82 1015.00 1015.14 1015.27 1015.37 1015.49 1015.62 1015.78 1015.99 1016.23 1016.50 1016.79 1017.07 1017.35 1017.63 1017.90 1018.17 1018.45 1018.74 1019.02
1006.92 1006.97 1007.16 1007.50 1007.97 1008.53 1009.09 1009.61 1010.03 1010.35 1010.59 1010.79 1011.00 1011.26 1011.59 1011.97 1012.40 1012.81 1013.18 1013.47 1013.68 1013.82 1013.92 1014.01 1014.14 1014.31 1014.54 1014.81 1015.08 1015.34 1015.54 1015.67 1015.74 1015.76 1015.77 1015.79 1015.86 1016.00 1016.20 1016.46 1016.76 1017.08 1017.40 1017.71 1018.00 1018.29 1018.57 1018.85 1019.12
1006.59 1006.73 1007.04 1007.53 1008.13 1008.77 1009.37 1009.87 1010.24 1010.48 1010.63 1010.75 1010.91 1011.14 1011.46 1011.86 1012.30 1012.73 1013.11 1013.40 1013.60 1013.72 1013.81 1013.92 1014.08 1014.31 1014.62 1014.98 1015.35 1015.68 1015.93 1016.08 1016.12 1016.09 1016.02 1015.96 1015.96 1016.04 1016.20 1016.45 1016.76 1017.10 1017.45 1017.77 1018.08 1018.36 1018.63 1018.89 1019.14
1006.13 1006.42 1006.91 1007.57 1008.31 1009.04 1009.66 1010.12 1010.40 1010.51 1010.54 1010.55 1010.63 1010.82 1011.14 1011.56 1012.04 1012.52 1012.93 1013.23 1013.43 1013.55 1013.63 1013.73 1013.91 1014.19 1014.56 1014.99 1015.44 1015.85 1016.16 1016.34 1016.39 1016.34 1016.24 1016.13 1016.07 1016.11 1016.25 1016.48 1016.79 1017.14 1017.49 1017.83 1018.12 1018.39 1018.64 1018.87 1019.11
1005.74 1006.21 1006.91 1007.76 1008.64 1009.44 1010.05 1010.43 1010.56 1010.51 1010.36 1010.22 1010.19 1010.32 1010.63 1011.09 1011.63 1012.17 1012.63 1012.99 1013.21 1013.33 1013.41 1013.50 1013.68 1013.97 1014.37 1014.86 1015.37 1015.84 1016.21 1016.45 1016.53 1016.49 1016.38 1016.26 1016.18 1016.19 1016.31 1016.54 1016.85 1017.19 1017.54 1017.86 1018.14 1018.38 1018.60 1018.80 1019.01
1005.54 1006.23 1007.16 1008.19 1009.20 1010.03 1010.58 1010.82 1010.77 1010.49 1010.13 1009.81 1009.63 1009.69 1009.97 1010.46 1011.06 1011.69 1012.24 1012.66 1012.93 1013.08 1013.16 1013.24 1013.41 1013.69 1014.10 1014.60 1015.15 1015.67 1016.10 1016.38 1016.51 1016.51 1016.42 1016.31 1016.24 1016.24 1016.36 1016.58 1016.88 1017.21 1017.55 1017.85 1018.11 1018.32 1018.50 1018.67 1018.85
1005.60 1006.53 1007.66 1008.85 1009.94 1010.76 1011.22 1011.29 1011.01 1010.48 1009.87 1009.33 1009.00 1008.95 1009.21 1009.71 1010.38 1011.09 1011.73 1012.24 1012.57 1012.76 1012.85 1012.93 1013.08 1013.34 1013.73 1014.24 1014.80 1015.35 1015.82 1016.16 1016.34 1016.39 1016.34 1016.26 1016.21 1016.23 1016.34 1016.56 1016.85 1017.17 1017.49 1017.77 1018.01 1018.19 1018.33 1018.47 1018.62
1005.88 1007.01 1008.32 1009.63 1010.75 1011.53 1011.86 1011.73 1011.21 1010.43 1009.57 1008.82 1008.33 1008.17 1008.37 1008.88 1009.59 1010.38 1011.11 1011.70 1012.10 1012.34 1012.47 1012.55 1012.69 1012.93 1013.29 1013.78 1014.34 1014.90 1015.40 1015.78 1016.02 1016.13 1016.13 1016.09 1016.07 1016.11 1016.23 1016.44 1016.72 1017.03 1017.33 1017.60 1017.81 1017.96 1018.07 1018.18 1018.30
1006.25 1007.54 1008.97 1010.34 1011.45 1012.14 1012.33 1012.02 1011.28 1010.28 1009.22 1008.29 1007.64 1007.39 1007.53 1008.02 1008.76 1009.59 1010.38 1011.04 1011.52 1011.81 1011.97 1012.08 1012.21 1012.44 1012.79 1013.26 1013.81 1014.38 1014.89 1015.31 1015.59 1015.74 1015.80 1015.81 1015.82 1015.88 1016.01 1016.23 1016.50 1016.79 1017.08 1017.32 1017.51 1017.64 1017.73 1017.81 1017.90
1006.54 1007.93 1009.41 1010.77 1011.82 1012.42 1012.48 1012.02 1011.13 1009.98 1008.78 1007.72 1006.98 1006.65 1006.74 1007.20 1007.92 1008.77 1009.60 1010.30 1010.83 1011.17 1011.38 1011.52 1011.67 1011.91 1012.25 1012.71 1013.25 1013.81 1014.33 1014.76 1015.08 1015.27 1015.38 1015.42 1015.47 1015.55 1015.70 1015.91 1016.18 1016.47 1016.74 1016.97 1017.14 1017.26 1017.33 1017.38 1017.45
1006.63 1008.03 1009.48 1010.78 1011.74 1012.24 1012.20 1011.65 1010.70 1009.50 1008.25 1007.17 1006.39 1006.02 1006.07 1006.49 1007.18 1008.00 1008.81 1009.53 1010.08 1010.47 1010.72 1010.91 1011.09 1011.35 1011.70 1012.15 1012.68 1013.23 1013.75 1014.20 1014.53 1014.75 1014.89 1014.97 1015.05 1015.16 1015.32 1015.54 1015.81 1016.09 1016.35 1016.58 1016.74 1016.85 1016.90 1016.93 1016.98
1006.43 1007.77 1009.12 1010.29 1011.14 1011.55 1011.47 1010.92 1010.00 1008.86 1007.69 1006.67 1005.94 1005.58 1005.61 1005.98 1006.61 1007.36 1008.13 1008.81 1009.36 1009.77 1010.06 1010.29 1010.52 1010.80 1011.17 1011.63 1012.15 1012.68 1013.19 1013.63 1013.96 1014.20 1014.36 1014.48 1014.58 1014.72 1014.90 1015.13 1015.41 1015.69 1015.96 1016.19 1016.35 1016.45 1016.50 1016.52 1016.53
1006.02 1007.22 1008.39 1009.41 1010.13 1010.47 1010.39 1009.91 1009.13 1008.16 1007.17 1006.31 1005.69 1005.39 1005.43 1005.75 1006.29 1006.95 1007.63 1008.24 1008.75 1009.15 1009.46 1009.73 1010.00 1010.32 1010.71 1011.17 1011.67 1012.18 1012.66 1013.07 1013.40 1013.64 1013.81 1013.95 1014.09 1014.25 1014.46 1014.71 1015.00 1015.30 1015.57 1015.81 1015.98 1016.09 1016.13 1016.14 1016.14
Thickness
5824 5821 5816 5803 5783 5764 5759 5773 5784 5785 5784 5790 5792 5786 5775 5767 5758 5749 5771 5779 5779 5778 5778 5778 5779 5779 5780 5780 5780 5779 5779 5779 5779 5779 5779 5780 5780 5779 5778 5777 5777 5776 5776 5776 5775 5773 5772 5770 5768
5827 5822 5811 5794 5769 5750 5759 5778 5781 5786 5791 5795 5792 5786 5776 5770 5775 5772 5774 5778 5780 5779 5779 5779 5779 5779 5779 5779 5779 5779 5778 5778 5778 5779 5779 5779 5779 5778 5777 5776 5776 5776 5776 5775 5773 5772 5771 5769 5767
5829 5824 5803 5783 5765 5757 5765 5782 5787 5794 5800 5797 5788 5785 5777 5770 5775 5775 5779 5781 5781 5780 5780 5780 5780 5780 5779 5779 5778 5779 5778 5778 5778 5779 5779 5779 5778 5777 5776 5776 5775 5775 5775 5773 5772 5772 5770 5768 5766
5827 5813 5799 5778 5769 5780 5786 5790 5796 5794 5795 5796 5788 5777 5778 5783 5782 5782 5783 5783 5781 5780 5781 5781 5781 5780 5779 5778 5778 5778 5778 5778 5779 5779 5778 5778 5778 5777 5776 5776 5775 5774 5774 5772 5770 5771 5769 5766 5764
5826 5803 5782 5771 5777 5791 5799 5803 5802 5793 5789 5789 5786 5772 5771 5784 5789 5786 5784 5783 5781 5780 5781 5781 5780 5779 5778 5778 5777 5777 5777 5778 5778 5778 5778 5778 5778 5777 5776 5775 5775 5773 5772 5771 5769 5768 5766 5765 5763
5812 5797 5772 5766 5780 5795 5801 5807 5803 5793 5788 5787 5783 5773 5770 5784 5785 5785 5785 5784 5783 5782 5781 5780 5780 5779 5778 5778 5777 5777 5777 5777 5777 5777 5777 5777 5777 5777 5776 5775 5774 5773 5772 5770 5768 5767 5765 5764 5763
5807 5790 5776 5779 5783 5790 5800 5809 5803 5794 5788 5788 5789 5773 5772 5780 5785 5786 5785 5784 5784 5783 5782 5781 5780 5779 5779 5778 5777 5777 5777 5777 5777 5777 5776 5777 5777 5776 5775 5774 5773 5772 5771 5769 5768 5766 5765 5764 5763
5822 5797 5783 5784 5785 5789 5807 5812 5809 5801 5793 5799 5795 5775 5770 5780 5787 5786 5784 5783 5782 5782 5781 5780 5779 5779 5778 5778 5778 5777 5777 5776 5776 5776 5776 5776 5776 5776 5775 5774 5773 5772 5770 5769 5768 5766 5765 5763 5762
5830 5793 5779 5789 5792 5796 5811 5808 5810 5813 5803 5799 5798 5791 5788 5790 5788 5783 5780 5778 5778 5779 5780 5780 5779 5779 5779 5778 5778 5777 5776 5776 5776 5776 5776 5776 5776 5775 5774 5774 5773 5772 5771 5769 5768 5766 5764 5763 5761
5820 5791 5796 5813 5813 5809 5813 5811 5809 5802 5794 5790 5790 5793 5795 5791 5787 5781 5777 5775 5775 5776 5779 5780 5780 5779 5778 5778 5777 5776 5775 5775 5775 5775 5775 5775 5775 5775 5774 5774 5773 5772 5770 5769 5767 5765 5763 5762 5760
5824 5810 5819 5825 5827 5822 5815 5812 5814 5799 5786 5789 5788 5789 5791 5789 5786 5782 5779 5779 5778 5780 5780 5781 5780 5779 5779 5778 5777 5776 5775 5775 5775 5776 5775 5775 5775 5774 5774 5773 5772 5771 5769 5767 5766 5764 5762 5761 5759
5830 5829 5833 5831 5835 5827 5820 5815 5809 5804 5799 5805 5803 5799 5794 5789 5785 5783 5781 5781 5781 5781 5781 5782 5782 5781 5780 5779 5778 5777 5776 5776 5776 5776 5776 5776 5775 5774 5773 5772 5771 5770 5769 5767 5765 5763 5761 5760 5758
5830 5830 5838 5838 5836 5831 5825 5816 5811 5806 5811 5810 5806 5801 5795 5791 5789 5788 5788 5786 5784 5782 5782 5783 5783 5782 5781 5780 5779 5777 5777 5777 5777 5777 5777 5777 5776 5775 5774 5773 5772 5770 5768 5766 5763 5762 5760 5759 5757
5835 5836 5837 5835 5833 5831 5821 5814 5810 5805 5813 5808 5803 5798 5797 5794 5792 5789 5787 5785 5785 5784 5784 5784 5784 5783 5782 5780 5779 5778 5778 5778 5778 5777 5778 5777 5776 5775 5774 5773 5772 5770 5768 5766 5764 5762 5760 5758 5756
5842 5828 5826 5829 5830 5827 5821 5801 5804 5812 5813 5806 5803 5801 5799 5798 5796 5793 5791 5789 5788 5787 5786 5785 5785 5784 5782 5781 5781 5780 5779 5779 5778 5778 5778 5778 5777 5776 5775 5774 5772 5770 5768 5765 5763 5761 5759 5757 5754
5830 5815 5802 5820 5827 5826 5811 5784 5805 5816 5811 5804 5803 5802 5800 5799 5798 5798 5796 5794 5792 5789 5787 5787 5787 5784 5782 5782 5781 5781 5780 5780 5778 5778 5777 5777 5776 5776 5775 5773 5770 5769 5767 5765 5762 5759 5756 5753 5751
5807 5794 5797 5812 5828 5824 5810 5793 5809 5817 5812 5805 5804 5802 5801 5799 5799 5800 5800 5797 5795 5792 5789 5787 5786 5784 5783 5782 5781 5781 5780 5779 5778 5777 5776 5776 5776 5775 5774 5772 5769 5768 5766 5763 5761 5758 5755 5751 5749
5791 5796 5801 5806 5822 5822 5809 5804 5812 5817 5814 5808 5806 5803 5801 5800 5800 5802 5802 5800 5798 5795 5792 5789 5786 5784 5783 5782 5781 5779 5778 5777 5777 5776 5775 5775 5774 5774 5772 5770 5768 5766 5764 5761 5759 5756 5754 5752 5749
5814 5806 5804 5815 5830 5820 5811 5808 5810 5815 5814 5809 5806 5804 5802 5803 5805 5805 5804 5802 5799 5796 5792 5789 5786 5785 5783 5781 5778 5776 5774 5775 5775 5775 5774 5774 5773 5772 5771 5768 5766 5764 5762 5760 5758 5755 5752 5749 5748
5817 5807 5807 5820 5832 5822 5808 5806 5814 5817 5816 5816 5812 5808 5806 5803 5803 5803 5803 5802 5799 5795 5793 5790 5788 5787 5785 5783 5781 5779 5777 5775 5775 5775 5773 5772 5772 5771 5769 5767 5765 5763 5761 5758 5756 5754 5750 5747 5747
5813 5810 5810 5812 5822 5821 5808 5794 5802 5813 5819 5819 5819 5817 5814 5810 5806 5804 5803 5801 5800 5797 5795 5794 5790 5789 5787 5786 5783 5780 5777 5774 5773 5771 5771 5771 5770 5769 5768 5766 5765 5762 5761 5758 5756 5754 5751 5746 5745
5806 5828 5827 5820 5802 5787 5798 5766 5789 5804 5807 5812 5815 5816 5814 5814 5811 5808 5806 5802 5801 5800 5799 5796 5793 5791 5790 5788 5783 5779 5774 5770 5771 5770 5770 5770 5769 5768 5767 5766 5764 5761 5759 5758 5756 5755 5752 5748 5743
5823 5836 5829 5820 5802 5788 5791 5772 5779 5799 5798 5806 5815 5818 5817 5817 5815 5812 5810 5807 5806 5804 5801 5798 5795 5792 5791 5789 5785 5780 5776 5774 5772 5771 5769 5768 5768 5768 5767 5765 5763 5760 5759 5757 5756 5754 5752 5749 5745
5834 5824 5813 5800 5785 5765 5782 5773 5772 5793 5806 5812 5817 5821 5821 5820 5819 5816 5815 5811 5808 5806 5803 5800 5795 5793 5791 5789 5786 5782 5778 5775 5772 5769 5767 5766 5766 5766 5765 5764 5762 5760 5758 5757 5755 5753 5751 5749 5746
5820 5790 5763 5757 5747 5756 5784 5779 5781 5811 5825 5827 5825 5825 5826 5824 5820 5817 5814 5811 5808 5806 5804 5800 5796 5793 5791 5789 5786 5783 5780 5777 5773 5770 5768 5765 5764 5763 5763 5763 5761 5759 5758 5756 5754 5752 5750 5748 5745
5809 5792 5760 5745 5741 5755 5777 5774 5796 5825 5833 5835 5834 5832 5829 5825 5824 5820 5818 5815 5812 5810 5806 5802 5797 5794 5792 5789 5786 5784 5781 5778 5775 5772 5769 5767 5765 5763 5763 5762 5760 5759 5757 5755 5753 5751 5749 5747 5745
5805 5793 5793 5768 5760 5752 5761 5780 5804 5825 5826 5828 5828 5828 5827 5827 5826 5823 5821 5818 5816 5812 5809 5805 5800 5796 5793 5790 5787 5784 5781 5779 5775 5773 5771 5768 5765 5764 5762 5761 5759 5757 5755 5753 5751 5749 5747 5745 5743
5817 5804 5778 5761 5745 5739 5755 5766 5778 5802 5810 5818 5821 5822 5825 5827 5826 5824 5822 5821 5818 5815 5812 5808 5803 5798 5795 5791 5787 5784 5781 5778 5776 5773 5770 5767 5765 5763 5761 5759 5757 5755 5753 5751 5749 5747 5745 5742 5741
5800 5796 5778 5761 5759 5742 5737 5760 5806 5809 5815 5817 5821 5824 5826 5827 5827 5826 5824 5823 5820 5816 5812 5807 5803 5798 5794 5791 5787 5783 5780 5777 5775 5772 5769 5766 5764 5762 5760 5758 5755 5753 5750 5749 5746 5744 5742 5739 5738
5807 5796 5778 5759 5755 5752 5746 5764 5819 5819 5822 5823 5823 5827 5829 5830 5829 5828 5826 5822 5818 5814 5811 5807 5803 5798 5795 5792 5787 5783 5780 5776 5773 5770 5768 5766 5763 5761 5759 5756 5753 5750 5748 5746 5743 5741 5738 5736 5734